Location: ?????????
(48.3500°N, 37.5527°E)
Time: 16:29:03
(UTC+00:00)

Daily predictions for brighter satellites

Satellite Brightness Start Highest point End
(mag) Time Altitude Azimuth Time Altitude Azimuth Time Altitude Azimuth
NOSS 2-2 (E) 4.5 13:59:56 10° NW 14:05:09 89° NE 14:12:33 10° SE
NOSS 2-2 (D) 4.3 14:00:34 10° NW 14:05:37 77° NE 14:12:48 10° SE
Cosmos 2026 Rocket 4.1 14:01:52 10° N 14:07:49 50° ENE 14:13:41 10° SSE
Meteor PRIRODA 3.7 14:06:24 10° SSE 14:09:57 55° ENE 14:13:31 10° N
Cosmos 1634 Rocket 4.4 14:04:30 10° SSE 14:10:24 43° E 14:16:19 10° NNE
Lacrosse 5 rocket 1.6 14:07:24 10° NW 14:11:08 45° NNE 14:15:02 10° ESE
ERBS 4.1 14:10:29 10° NW 14:12:47 18° N 14:15:05 10° NE
Cosmos 1666 Rocket 4.4 14:12:15 10° N 14:16:11 30° ENE 14:20:04 10° SE
Cosmos 2369 3.8 14:12:11 10° NNW 14:17:58 87° ENE 14:23:42 10° SSE
H-2A R/B 2.8 14:14:35 10° ESE 14:18:50 28° ENE 14:23:02 10° N
SL-16 R/B 3.0 14:18:23 10° NNW 14:23:17 29° NE 14:28:09 10° ESE
CZ-2C R/B 2.9 14:20:20 10° SSE 14:25:11 90° NE 14:29:57 10° NNW
Cosmos 2082 Rocket 2.4 14:21:18 10° S 14:26:50 56° ESE 14:32:22 10° NE
Okean O Rocket 3.0 14:24:06 10° E 14:27:02 18° ENE 14:29:59 10° NNE
Cosmos 1812 3.6 14:23:44 10° SSE 14:27:06 30° E 14:30:30 10° NNE
Cosmos 2221 4.0 14:23:53 10° SW 14:27:53 37° WNW 14:31:55 10° N
PSLV R/B 4.5 14:24:47 10° SE 14:28:02 29° ENE 14:31:21 10° N
ATLAS CENTAUR R/B 3.9 14:26:11 10° NW 14:28:10 13° NNW 14:30:13 10° NNE
ARGOS 4.2 14:24:57 10° ESE 14:29:09 24° ENE 14:33:21 10° N
USA 308 3.4 14:25:20 10° WNW 14:29:24 42° N 14:33:16 11° E
Cosmos 540 Rocket 3.4 14:24:45 10° SSW 14:29:51 85° ESE 14:35:00 10° NNE
FengYun 1-2 T 4.2 14:26:10 10° SSE 14:31:43 76° ENE 14:37:16 10° NNW
ATLAS CENTAUR R/B 3.0 14:21:31 10° SW 14:31:59 90° NW 14:35:54 12° NE
Cosmos 1500 Rocket 4.5 14:27:42 10° NNW 14:32:01 54° W 14:36:17 10° S
COSMOS 2455 2.9 14:26:06 10° SSW 14:32:05 75° ESE 14:38:09 10° NE
Sich 1 2.9 14:27:52 10° N 14:32:11 73° E 14:36:30 10° SSE
NOAA 6 4.0 14:32:36 10° SSE 14:37:41 69° ENE 14:42:47 10° N
SMAP 3.0 14:33:36 10° SSE 14:38:12 69° ENE 14:42:51 10° N
Cosmos 1833 Rocket 3.2 14:34:49 10° SW 14:40:22 60° WNW 14:45:59 10° NNE
Cosmos 2278 3.7 14:34:44 10° NNW 14:40:29 76° ENE 14:46:10 10° SSE
Cosmos 2333 Rocket 3.8 14:38:49 10° N 14:42:06 15° NNE 14:43:59 13° NE
deb Chang Zheng 4 4.5 14:40:00 10° ESE 14:43:34 26° ENE 14:47:09 10° N
Cosmos 1805 Rocket 4.0 14:40:12 10° NNW 14:44:31 66° W 14:48:48 10° S
CZ-4B DEB 4.2 14:39:57 10° SSE 14:45:22 63° ENE 14:50:48 10° N
Cosmos 1933 3.8 14:42:05 10° SSW 14:46:05 64° WNW 14:50:06 10° N
CZ-2C R/B 3.5 14:44:13 10° NE 14:48:35 27° E 14:52:56 10° SSE
Cosmos 2219 Rocket 3.9 14:47:34 10° N 14:50:29 14° NNE 14:51:36 13° NE
Meteor 1-14 Rocket 4.3 14:46:38 10° N 14:52:31 71° ENE 14:58:27 10° SSE
USA 305 3.1 14:49:47 10° WNW 14:53:56 51° NNE 14:56:51 18° E
Meteor 2-16 Rocket 4.4 14:49:04 10° N 14:55:10 68° ENE 15:01:16 10° SSE
Cosmos 1356 Rocket 4.4 14:52:51 10° N 14:56:25 26° ENE 15:00:00 10° SE
CZ-4B R/B 4.0 14:52:56 10° S 14:56:43 44° W 15:00:20 10° NNW
Cosmos 44 Rocket 3.2 14:53:04 10° NW 14:58:02 78° NE 15:02:48 10° SE
COSMOS 2406 3.8 14:54:00 10° SW 14:59:39 57° WNW 15:05:18 10° NNE
Cosmos 1500 3.7 14:56:18 10° NNW 15:00:00 59° W 15:03:39 10° S
MOS 1-B Rocket 4.3 14:55:11 10° NNE 15:01:05 50° E 15:07:49 10° S
Cosmos 1814 Rocket 3.9 14:57:06 10° SSW 15:02:18 77° ESE 15:07:24 10° NNE
Cosmos 1515 Rocket 4.4 15:00:26 10° SSE 15:04:15 29° E 15:06:04 21° NE
Cosmos 921 Rocket 3.4 15:03:02 10° S 15:06:58 40° ESE 15:09:08 23° NE
USA 267 3.3 15:03:05 18° ENE 15:08:15 76° SE 15:14:47 10° SW
Cosmos 1570 Rocket 3.9 15:03:44 10° SSW 15:08:57 77° ESE 15:13:48 12° NNE
CZ-4B R/B 3.2 15:06:19 10° SE 15:11:34 57° ENE 15:16:46 10° N
Cosmos 2298 Rocket 4.0 15:09:26 10° NNW 15:14:46 66° ENE 15:20:04 10° SSE
MOS 1-B 4.3 15:09:19 10° SSE 15:15:05 79° ENE 15:20:55 10° NNW
Cosmos 371 Rocket 4.5 15:13:04 10° N 15:16:25 23° NE 15:16:25 23° NE
Meteor 1-27 Rocket 4.3 15:14:42 10° SSE 15:19:31 32° E 15:21:31 25° NE
CZ-2D R/B 3.3 15:16:38 10° S 15:20:27 81° WSW 15:24:17 10° NNW
Meteor 2-6 Rocket 4.1 15:16:51 10° S 15:22:32 73° E 15:28:05 10° NNE
COSMO-SKYMED 1 2.8 15:21:57 25° NE 15:24:13 48° E 15:28:25 10° S
Cosmos 2360 Rocket 2.7 15:19:15 10° NNW 15:24:30 36° NE 15:26:27 28° E
Cosmos 1633 Rocket 3.3 15:20:20 10° NNW 15:24:42 71° W 15:29:04 10° S
Cosmos 1151 Rocket 3.2 15:20:35 10° SSW 15:24:54 72° W 15:29:18 10° N
APEX 3.2 15:22:12 10° S 15:25:42 42° ESE 15:25:44 42° ESE
PAYLOAD B 4.3 15:20:35 10° SSE 15:26:12 81° WSW 15:31:50 10° NNW
USA 306 2.8 15:22:05 10° WNW 15:26:19 68° NNE 15:27:50 38° E
SJ-11-01 4.2 15:22:55 10° SSE 15:27:35 62° ENE 15:32:16 10° N
Cosmos 2237 4.4 15:22:02 10° NNW 15:27:36 49° NE 15:31:35 18° ESE
Landsat 5 4.0 15:28:30 34° ESE 15:28:30 34° ESE 15:31:45 10° SSE
Cosmos 1782 4.5 15:24:46 10° SW 15:28:25 33° WNW 15:32:04 10° N
Cosmos 1666 3.5 15:25:06 10° NNW 15:28:43 50° W 15:32:18 10° S
Cosmos 1900 4.3 15:25:13 10° SW 15:30:05 84° NW 15:32:48 27° NNE
Cosmos 1818 4.0 15:26:06 10° NW 15:31:32 64° WSW 15:36:54 10° SSE
YAOGAN 1 4.1 15:34:12 21° NNE 15:34:12 21° NNE 15:35:57 10° N
Cosmos 2279 Rocket 4.1 15:26:59 10° SSW 15:33:11 77° W 15:39:25 10° N
ISS -0.6 15:32:50 10° WSW 15:34:29 13° SW 15:36:08 10° SSW
Meteor 2-15 4.3 15:29:59 10° S 15:36:03 74° E 15:42:08 10° NNE
Cosmos 2266 Rocket 3.9 15:29:52 10° N 15:36:17 73° E 15:42:42 10° SSE
CZ-4C R/B 3.8 15:30:50 10° NW 15:37:54 52° WSW 15:46:02 10° SSE
NOSS 3-4 (A) 4.4 15:33:23 10° NW 15:39:28 36° NNE 15:41:24 31° ENE
NOSS 3-4 (C) 4.4 15:33:29 10° NW 15:39:33 35° NNE 15:41:29 31° ENE
ATLAS 2AS CENTAUR R/B 3.9 15:35:37 10° NW 15:41:51 27° NNE 15:43:52 24° NE
USA 234 3.4 15:36:06 10° SE 15:42:37 72° SW 15:49:10 10° WNW
CZ-2C R/B 3.7 15:41:34 10° SSW 15:43:34 13° S 15:45:03 11° SSE
SL-08 RB Rocket 3.6 15:42:16 10° SSE 15:46:50 65° ENE 15:51:23 10° N
USA 307 2.7 15:42:36 10° WNW 15:46:53 80° NNE 15:47:30 63° E
Cosmos 2322 Rocket 2.1 15:41:35 10° NNW 15:47:20 76° ENE 15:52:59 10° SSE
COSMOS 2428 4.1 15:43:28 10° N 15:46:42 21° NNE 15:46:42 21° NNE
Cosmos 2208 Rocket 4.4 15:42:52 10° SSW 15:48:15 66° WNW 15:52:19 18° NNE
SKYMED 3 4.4 15:46:21 31° NNE 15:48:25 85° ESE 15:52:45 10° SSW
ERBS 4.4 15:46:55 10° NW 15:48:11 17° NNW 15:48:11 17° NNW
Cosmos 1980 Rocket 4.5 15:45:32 10° NW 15:50:03 25° WSW 15:54:32 10° SSW
Lacrosse 5 rocket 2.6 15:46:31 10° WNW 15:50:11 38° SW 15:53:16 15° SSE
Cosmos 2150 Rocket 4.2 15:45:11 10° NNW 15:50:21 70° WSW 15:55:34 10° SSE
NOSS 3-3 (A) 4.3 15:45:26 10° S 15:50:36 37° ESE 15:50:53 37° ESE
NOSS 3-3 (C) 4.4 15:45:33 10° S 15:50:43 37° ESE 15:50:58 37° ESE
Cosmos 1933 Rocket 3.4 15:47:25 10° N 15:51:48 83° E 15:56:08 10° S
Cosmos 1328 Rocket 4.4 15:50:30 10° SSW 15:54:49 51° WNW 15:58:56 11° N
Cosmos 1125 Rocket 3.8 15:51:33 10° NNW 15:56:47 67° WSW 16:02:00 10° S
Cosmos 1867 3.7 15:51:58 10° SSW 15:57:15 54° ESE 15:57:45 52° E
Cosmos 1470 Rocket 4.3 15:53:24 10° NNW 15:57:47 55° W 16:02:09 10° S
H-2A R/B 3.1 15:53:10 10° S 15:58:04 45° W 16:02:54 10° NNW
Meteor 1-10 Rocket 4.3 15:53:39 10° SSW 15:59:24 80° WNW 16:04:40 12° N
Meteor 1-11 Rocket 3.7 15:53:57 10° NNW 15:59:38 83° W 16:05:24 10° S
GEOS 3 Rocket 3.9 16:00:49 48° NE 16:00:49 48° NE 16:05:47 10° NNW
Cosmos 1544 3.7 15:57:20 10° NNW 16:00:52 54° W 16:04:24 10° S
Okean O Rocket 2.0 15:58:30 10° S 16:02:55 64° WSW 16:07:23 10° NNW
USA 32 3.9 15:58:04 10° S 16:03:16 77° E 16:05:46 32° NNE
SL-16 R/B 2.7 16:02:12 10° NNW 16:07:48 61° WSW 16:13:21 10° S
X-37B 3.1 16:05:43 10° SW 16:06:35 16° SW 16:06:35 16° SW
ARGOS 3.6 16:03:39 10° S 16:09:00 62° WSW 16:14:22 10° NNW
ATLAS CENTAUR R/B 4.1 16:07:31 10° N 16:08:07 11° N 16:08:07 11° N
Cosmos 2237 Rocket 4.3 16:06:17 10° N 16:07:15 12° N 16:07:15 12° N
USA 308 3.0 16:05:18 10° WNW 16:09:19 75° WSW 16:09:19 75° WSW
Cosmos 2082 Rocket 3.8 16:06:17 10° WSW 16:11:15 30° NW 16:15:05 15° N
SKYMED 2 4.1 16:10:34 32° N 16:12:19 56° WNW 16:16:34 10° SSW
Cosmos 1241 Rocket 4.4 16:10:27 10° SSW 16:16:45 66° ESE 16:17:20 63° E
COSMOS 2455 4.4 16:13:25 10° W 16:18:37 29° NW 16:21:45 19° N
Feng Yun 1-1 Rocket 4.5 16:16:47 10° S 16:22:41 75° WSW 16:28:32 10° NNW
Cosmos 2333 Rocket 2.9 16:22:04 10° NNW 16:26:02 40° N 16:26:02 40° N
CZ-2C R/B 3.5 16:25:19 17° N 16:29:07 46° WNW 16:34:01 10° SW
Aureole 3 Rocket 3.8 16:26:50 10° SSW 16:31:29 70° WNW 16:38:09 10° N
BREEZE-M DEB (TANK) 4.1 16:09:41 10° SW 16:33:14 69° SSE 16:34:34 59° E
USA 305 4.1 16:29:43 10° WNW 16:32:51 40° W 16:32:51 40° W
Cosmos 2219 Rocket 3.4 16:30:19 10° NNW 16:33:20 30° N 16:33:20 30° N
Nadezhda 2 Rocket 4.4 16:33:09 10° N 16:39:31 84° NE 16:39:31 84° NE
USA 267 3.6 16:50:26 51° N 16:51:07 53° NNW 16:57:24 10° W
ATLAS CENTAUR R/B 4.5 16:59:04 10° WNW 17:01:31 18° NW 17:01:31 18° NW
Cosmos 2360 Rocket 3.1 17:03:15 10° NW 17:08:17 44° W 17:08:17 44° W
NOSS 3-4 (A) 4.5 17:24:09 10° NW 17:28:51 49° NW 17:28:51 49° NW
NOSS 3-4 (C) 4.5 17:24:14 10° NW 17:28:56 48° NW 17:28:56 48° NW
ATLAS 2AS CENTAUR R/B 4.0 17:27:13 10° NW 17:31:18 33° NNW 17:31:18 33° NNW
